Truckee-Tahoe, CA

5:59 PM PDT on August 25, 2019 (GMT -0700)
Truckee-Tahoe

Weather History for KTRK - July, 2019

Change the Weather History Date:

Thursday, July 18, 2019

  Actual Average Record
Temperature  
Mean Temperature 60 °F -  
Max Temperature 82 °F 82 °F 95 °F (1960)
Min Temperature 37 °F 42 °F 32 °F (1963)
Degree Days  
Heating Degree Days 6    
Growing Degree Days 10 (Base 50)    
Moisture  
Dew Point 42 °F    
Average Humidity 65    
Maximum Humidity 100    
Minimum Humidity 15    
Precipitation  
Precipitation 0.00 in - - ()
Sea Level Pressure  
Sea Level Pressure 30.15 in    
Wind  
Wind Speed 2 mph (SW)    
Max Wind Speed 14 mph    
Max Gust Speed 21 mph    
Visibility 10 miles    
Events      
Averages and records for this station are not official NWS values.
T = Trace of Precipitation, MM = Missing Value Source: NWS Daily Summary

Daily Weather History Graph

Daily Weather History Graph

Search for Another Location

Airport or City:

Astronomy

Jul. 18, 2019 Rise Set
Actual Time 5:48 AM PDT 8:24 PM PDT
Civil Twilight 5:17 AM PDT 8:55 PM PDT
Nautical Twilight 4:38 AM PDT 9:34 PM PDT
Astronomical Twilight 3:54 AM PDT 10:17 PM PDT
Moon 9:53 PM PDT (7/18) 7:22 AM PDT (7/18)
Length of Visible Light 15h 38m
Length of Day
14h 36m
Waning Gibbous, 97% of the Moon is Illuminated
Jul 18
Waning Gibbous
Jul 24
Last Quarter
Jul 31
New
Aug 7
First Quarter
Aug 15
Full

Hourly Weather History & Observations

Time (PDT) Temp. Windchill Dew Point Humidity Pressure Visibility Wind Dir Wind Speed Gust Speed Precip Events Conditions
12:15 AM 48.2 °F - 42.8 °F 82% 30.19 in 10.0 mi Calm Calm - N/A   Clear
12:35 AM 50.0 °F - 42.8 °F 76% 30.19 in 10.0 mi SE 3.5 mph - N/A   Clear
12:55 AM 50.0 °F - 46.4 °F 87% 30.18 in 10.0 mi SSW 3.5 mph - N/A   Clear
1:15 AM 46.4 °F - 44.6 °F 93% 30.18 in 10.0 mi Calm Calm - N/A   Clear
1:35 AM 46.4 °F - 41.0 °F 81% 30.17 in 10.0 mi Calm Calm - N/A   Clear
1:55 AM 46.4 °F - 42.8 °F 87% 30.17 in 10.0 mi Calm Calm - N/A   Clear
2:15 AM 46.4 °F - 42.8 °F 87% 30.17 in 10.0 mi Calm Calm - N/A   Clear
2:35 AM 44.6 °F - 41.0 °F 87% 30.17 in 10.0 mi Calm Calm - N/A   Clear
2:55 AM 44.6 °F - 42.8 °F 93% 30.17 in 10.0 mi Calm Calm - N/A   Clear
3:15 AM 42.8 °F - 42.8 °F 100% 30.17 in 10.0 mi Calm Calm - N/A   Clear
3:35 AM 44.6 °F - 44.6 °F 100% 30.17 in 10.0 mi Calm Calm - N/A   Clear
3:55 AM 44.6 °F 43.1 °F 41.0 °F 87% 30.17 in 10.0 mi ESE 3.5 mph - N/A   Clear
4:15 AM 37.4 °F - 35.6 °F 93% 30.17 in 10.0 mi Calm Calm - N/A   Scattered Clouds
4:35 AM 42.8 °F - 41.0 °F 93% 30.17 in 10.0 mi Calm Calm - N/A   Scattered Clouds
4:55 AM 42.8 °F - 42.8 °F 100% 30.17 in 10.0 mi Calm Calm - N/A   Clear
5:15 AM 41.0 °F - 39.2 °F 93% 30.16 in 10.0 mi Calm Calm - N/A   Clear
5:35 AM 41.0 °F - 41.0 °F 100% 30.16 in 10.0 mi Calm Calm - N/A   Clear
5:55 AM 42.8 °F - 41.0 °F 93% 30.17 in 10.0 mi Calm Calm - N/A   Clear
6:15 AM 37.4 °F - 37.4 °F 100% 30.17 in 10.0 mi Calm Calm - N/A   Clear
6:35 AM 41.0 °F - 39.2 °F 93% 30.18 in 4.0 mi Calm Calm - N/A   Clear
6:45 AM 42.8 °F - 41.0 °F 93% 30.18 in 10.0 mi Calm Calm - N/A   Clear
7:50 AM 53.6 °F - 44.6 °F 72% 30.17 in 10.0 mi Calm Calm - N/A   Clear
8:50 AM 60.8 °F - 44.6 °F 55% 30.17 in 10.0 mi Calm Calm - N/A   Clear
9:45 AM 69.8 °F - 44.6 °F 40% 30.16 in 10.0 mi WNW 3.5 mph - N/A   Clear
11:50 AM 78.8 °F - 33.8 °F 20% 30.16 in 10.0 mi WSW 12.7 mph 18.4 mph N/A   Clear
12:50 PM 78.8 °F - 32.0 °F 18% 30.15 in 10.0 mi West 10.4 mph - N/A   Clear
2:45 PM 80.6 °F - 30.2 °F 16% 30.13 in 10.0 mi South 9.2 mph 20.7 mph N/A   Clear
3:50 PM 82.4 °F - 30.2 °F 15% 30.12 in 10.0 mi SSW 13.8 mph 20.7 mph N/A   Clear
5:45 PM 78.8 °F - 42.8 °F 28% 30.11 in 10.0 mi SW 9.2 mph - N/A   Clear
6:10 PM 77.0 °F - 41.0 °F 28% 30.10 in 10.0 mi SW 8.1 mph - N/A   Clear
6:20 PM 77.0 °F - 42.8 °F 29% 30.10 in 10.0 mi SW 8.1 mph - N/A   Clear
6:35 PM 75.2 °F - 41.0 °F 29% 30.10 in 10.0 mi WSW 9.2 mph - N/A   Clear
6:55 PM 73.4 °F - 41.0 °F 31% 30.10 in 10.0 mi WSW 9.2 mph - N/A   Clear
7:15 PM 71.6 °F - 42.8 °F 35% 30.10 in 10.0 mi WSW 8.1 mph - N/A   Clear
7:35 PM 71.6 °F - 42.8 °F 35% 30.11 in 10.0 mi West 6.9 mph - N/A   Clear
7:55 PM 69.8 °F - 42.8 °F 38% 30.11 in 10.0 mi West 9.2 mph - N/A   Clear
8:15 PM 68.0 °F - 44.6 °F 43% 30.11 in 10.0 mi West 8.1 mph - N/A   Clear
8:35 PM 66.2 °F - 44.6 °F 46% 30.12 in 10.0 mi West 6.9 mph - N/A   Clear
8:55 PM 64.4 °F - 44.6 °F 49% 30.13 in 10.0 mi West 3.5 mph - N/A   Clear
9:15 PM 64.4 °F - 46.4 °F 52% 30.13 in 10.0 mi West 4.6 mph - N/A   Clear
9:35 PM 59.0 °F - 44.6 °F 59% 30.13 in 10.0 mi Calm Calm - N/A   Clear
9:55 PM 60.8 °F - 46.4 °F 59% 30.14 in 10.0 mi West 3.5 mph - N/A   Clear
10:15 PM 55.4 °F - 44.6 °F 67% 30.14 in 10.0 mi Calm Calm - N/A   Clear
10:35 PM 55.4 °F - 42.8 °F 63% 30.14 in 10.0 mi South 3.5 mph - N/A   Clear
10:55 PM 51.8 °F - 42.8 °F 71% 30.14 in 10.0 mi Calm Calm - N/A   Clear
11:15 PM 50.0 °F - 42.8 °F 76% 30.14 in 10.0 mi South 4.6 mph - N/A   Clear
11:35 PM 50.0 °F - 42.8 °F 76% 30.14 in 10.0 mi South 3.5 mph - N/A   Clear
11:55 PM 51.8 °F - 44.6 °F 76% 30.14 in 10.0 mi Calm Calm - N/A   Clear